Location: Bo?a Wola
(50.4192°N, 19.7966°E)
Time: 22:00:18
(UTC+00:00)

Cosmos 1455 Rocket - Pass Details

Date: 24 September 2024
Orbit: 601 x 623 km, 82.5° (Epoch: 13 October)

Event Time Altitude Azimuth Distance (km) Brightness Sun altitude
Exits shadow 00:17:25 15° 1° (N) 1,670 5.8 -35.4°
Drops below altitude 10° 00:18:13 10° 3° (N) 1,977 6.2 -35.4°
Sets 00:20:29 0° 8° (N) 2,891 7.3 -35.2°
